Regional Weather Roundup
Issued by NWS

Home | Current Version | Previous Version | Text Only | Print | Product List | Glossary On
Versions: 1 2 3 4 5 6 7 8 9 10 11 12 13 14 15 16 17 18 19 20 21 22 23 24 25 26 27 28 29 30 31 32 33 34 35 36 37 38 39 40 41 42 43 44 45 46 47 48 49 50
000
ASCA44 KEWX 080420
RWRMX

LATIN AMERICA AND CARIBBEAN REGIONAL WEATHER ROUNDUP
NATIONAL WEATHER SERVICE AUSTIN/SAN ANTONIO TX
1100 PM CDT TUE JUL 07 2015

NOTE: "FAIR" INDICATED FEW OR NO CLOUDS BELOW 12,000 FEET WITH NO
SIGNIFICANT WEATHER AND/OR OBSTRUCTIONS TO VISIBILITY.

BAJA CALIFORNIA

CITY           SKY/WX    TMP DP  RH WIND       PRES   REMARKS
LA PAZ         PTCLDY    79  63  57 S12       29.86R
MEXICALI       CLEAR     93  55  27 NW7       29.67  HX  91
S.J. DEL CABO  PTCLDY    86  57  37 NE5       29.85R
TIJUANA        CLOUDY    64  55  72 W7        29.95R

NORTHWESTERN MEXICO

CITY           SKY/WX    TMP DP  RH WIND       PRES   REMARKS
CULIACAN       LGT RAIN  82  81  94 E6        29.85R HX  95
HERMOSILLO     CLEAR     95  63  34 S8        29.80R HX  96
CD. JUAREZ     PTCLDY    73  63  68 E17       30.01R
LOS MOCHIS       N/A    N/A N/A N/A MISG        N/A
OBREGON          N/A    N/A N/A N/A MISG        N/A

NORTHEASTERN MEXICO

CITY           SKY/WX    TMP DP  RH WIND       PRES   REMARKS
CHIHUAHUA      TSTM      66  64  94 N23       30.15R
MONCLOVA         N/A    N/A N/A N/A MISG        N/A
MONTERREY      PTCLDY    82  64  54 SE10      29.94R
PIEDRAS NEGRAS   N/A    N/A N/A N/A MISG        N/A
REYNOSA        PTCLDY    79  73  83 E9        29.97R
SALTILLO       PTCLDY    64  59  82 N9        30.19F
TORREON        CLOUDY    73  68  83 SW6       30.10R

WESTERN MEXICO

CITY           SKY/WX    TMP DP  RH WIND       PRES   REMARKS
AGUASCALIENTES CLOUDY    57  54  88 E7        30.25R
DEL BAJIO      MOCLDY    63  61  94 CALM      30.28R
GUADALAJARA    CLOUDY    66  61  82 SW6       30.19R
MAZATLAN       CLOUDY    75  72  88 SW8       29.85R
P. VALLARTA    CLOUDY    84  77  79 SE3       29.88R HX  94
ZACATECAS      RAIN      57  48  72 CALM      30.29S

CENTRAL MEXICO

CITY           SKY/WX    TMP DP  RH WIND       PRES   REMARKS
MEXICO CITY    PTCLDY    64  50  59 W9        30.34R
PUEBLA         PTCLDY    57  48  72 N5        30.36R
QUERETARO      MOCLDY    63  59  88 NE5       30.32R
S. LUIS POTOSI PTCLDY    64  57  77 S9        30.27R
TAMPICO        PTCLDY    81  75  83 SE12      29.99R
TOLUCA         PTCLDY    50  48  93 E5        30.43R WCI  48

SOUTHERN MEXICO

CITY           SKY/WX    TMP DP  RH WIND       PRES   REMARKS
ACAPULCO       TSTM      77  75  94 N10       29.93R
OAXACA         PTCLDY    68  52  56 S6        30.24R
VERACRUZ       CLEAR     81  75  83 E2        29.99R
ZIHUATANEJO      N/A    N/A N/A N/A MISG        N/A

YUCATAN PENINSULA

CITY           SKY/WX    TMP DP  RH WIND       PRES   REMARKS
CAMPECHE       MOCLDY    88  70  55 E12       29.97R HX  92
CANCUN         PTCLDY    82  79  89 NE10      30.07R HX  93
COZUMEL        PTCLDY    79  77  94 CALM      30.06S
MERIDA         PTCLDY    79  73  83 CALM      30.04R
TAPACHULA      MOCLDY    82  79  89 CALM      29.91R HX  93
TUX. GUTIERREZ MOCLDY    75  66  73 CALM      29.98R
VILLAHERMOSA   PTCLDY    82  68  61 E14       29.96R

CENTRAL AMERICA

CITY           SKY/WX    TMP DP  RH WIND       PRES   REMARKS
MANAGUA        PTCLDY    79  73  83 CALM      29.92S

CARIBBEAN

CITY           SKY/WX    TMP DP  RH WIND       PRES   REMARKS
ARUBA          PTCLDY    81  77  89 E14       29.97R
KINGSTON       PTCLDY    82  75  78 NE5       30.00S
NASSAU         PTCLDY    82  73  74 E8        30.16S
SAN JUAN       PTCLDY    82  73  74 E12       30.10F
SANTO DOMINGO  PTCLDY    79  73  83 VRB3      30.06S
ST. CROIX      PTCLDY    81  73  78 E9        30.09
ST. MAARTEN    PTCLDY    82  72  69 E15       30.06S
ST. THOMAS     PTCLDY    82  72  69 NE6       30.08

$$



USA.gov is the U.S. government's official web portal to all federal, state and local government web resources and services.